Weather History for Shelbyville, IN

Change the Weather History Date:

Saturday, April 13, 2013

  Actual Average Record
Temperature  
Mean Temperature 47 °F 52 °F  
Max Temperature 55 °F 63 °F 82 °F (2006)
Min Temperature 39 °F 41 °F 32 °F (2012)
Degree Days  
Heating Degree Days 18 13  
Month to date heating degree days 173 199  
Since 1 July heating degree days 4822 5082  
Cooling Degree Days 0 0  
Month to date cooling degree days 10 0  
Year to date cooling degree days 10 1  
Moisture  
Dew Point 33 °F    
Average Humidity 61    
Maximum Humidity 76    
Minimum Humidity 46    
Precipitation  
Precipitation 0.00 in 0.13 in 0.64 in (2009)
Month to date precipitation 0.52 1.61  
Year to date precipitation 6.98 9.79  
Sea Level Pressure  
Sea Level Pressure 29.96 in    
Wind  
Wind Speed 12 mph (West)    
Max Wind Speed 25 mph    
Max Gust Speed 32 mph    
Visibility 10 miles    
Events      
T = Trace of Precipitation, MM = Missing Value Source: NWS Daily Summary

Daily Weather History Graph

Daily Weather History Graph

Search for Another Location

Airport:

Trip Planner

Search our weather history database for the weather conditions in past years. The results will help you decide how hot, cold, wet, or windy it might be!

Date:

Astronomy

Apr. 13, 2013 Rise Set
Actual Time 7:08 AM EDT 8:19 PM EDT
Civil Twilight 6:40 AM EDT 8:47 PM EDT
Nautical Twilight 6:07 AM EDT 9:20 PM EDT
Astronomical Twilight 5:33 AM EDT 9:55 PM EDT
Moon 9:00 AM EDT (4/13) 11:42 PM EDT (4/13)
Length of Visible Light 14h 06m
Length of Day
13h 10m
Waxing Crescent, 10% of the Moon is Illuminated
Apr 13
Waxing Crescent
Apr 18
First Quarter
Apr 25
Full
May 2
Last Quarter
May 9
New

Hourly Weather History & Observations

Time (EDT) Temp. Windchill Dew Point Humidity Pressure Visibility Wind Dir Wind Speed Gust Speed Precip Events Conditions
12:53 AM 43.0 °F 37.7 °F 33.1 °F 68% 29.93 in 10.0 mi West 9.2 mph - N/A   Overcast
1:53 AM 43.0 °F 37.7 °F 32.0 °F 65% 29.94 in 10.0 mi WSW 9.2 mph - N/A   Overcast
2:53 AM 42.1 °F 36.1 °F 33.1 °F 70% 29.94 in 10.0 mi WSW 10.4 mph - N/A   Overcast
3:53 AM 42.1 °F 37.1 °F 33.1 °F 70% 29.93 in 10.0 mi WSW 8.1 mph - N/A   Overcast
4:53 AM 42.1 °F 36.1 °F 33.1 °F 70% 29.94 in 10.0 mi WSW 10.4 mph - N/A   Overcast
5:53 AM 42.1 °F 36.6 °F 33.1 °F 70% 29.94 in 10.0 mi WSW 9.2 mph - N/A   Overcast
6:53 AM 42.1 °F 36.1 °F 33.1 °F 70% 29.94 in 10.0 mi WSW 10.4 mph - N/A   Overcast
7:53 AM 42.1 °F 35.7 °F 34.0 °F 73% 29.95 in 10.0 mi WSW 11.5 mph - N/A   Overcast
8:53 AM 42.1 °F 34.9 °F 33.1 °F 70% 29.96 in 10.0 mi West 13.8 mph 20.7 mph N/A   Overcast
9:09 AM 42.8 °F 34.8 °F 30.2 °F 61% 29.96 in 10.0 mi WSW 17.3 mph 24.2 mph N/A   Overcast
9:53 AM 44.1 °F 37.7 °F 30.9 °F 60% 29.97 in 10.0 mi WSW 12.7 mph 23.0 mph N/A   Overcast
10:53 AM 46.9 °F - 32.0 °F 56% 29.96 in 10.0 mi WSW 16.1 mph 25.3 mph N/A   Overcast
11:53 AM 48.9 °F - 33.1 °F 54% 29.97 in 10.0 mi West 18.4 mph - N/A   Mostly Cloudy
12:53 PM 51.1 °F - 34.0 °F 52% 29.96 in 10.0 mi WSW 20.7 mph 27.6 mph N/A   Mostly Cloudy
1:53 PM 52.0 °F - 34.0 °F 50% 29.96 in 10.0 mi West 19.6 mph 32.2 mph N/A   Mostly Cloudy
2:53 PM 53.1 °F - 34.0 °F 48% 29.97 in 10.0 mi West 19.6 mph 25.3 mph N/A   Mostly Cloudy
3:53 PM 54.0 °F - 36.0 °F 51% 29.97 in 10.0 mi West 15.0 mph 25.3 mph N/A   Partly Cloudy
4:53 PM 54.0 °F - 34.0 °F 47% 29.97 in 10.0 mi West 16.1 mph 24.2 mph N/A   Partly Cloudy
5:53 PM 54.0 °F - 33.1 °F 45% 29.97 in 10.0 mi WNW 13.8 mph - N/A   Clear
6:53 PM 53.1 °F - 33.1 °F 47% 29.98 in 10.0 mi WNW 9.2 mph - N/A   Clear
7:53 PM 50.0 °F - 33.1 °F 52% 29.98 in 10.0 mi WNW 8.1 mph - N/A   Clear
8:53 PM 44.1 °F 41.5 °F 34.0 °F 68% 29.99 in 10.0 mi NNW 4.6 mph - N/A   Scattered Clouds
9:53 PM 45.0 °F 43.5 °F 34.0 °F 65% 30.00 in 10.0 mi NNE 3.5 mph - N/A   Mostly Cloudy
10:53 PM 44.1 °F 42.5 °F 34.0 °F 68% 30.01 in 10.0 mi ESE 3.5 mph - N/A   Partly Cloudy
11:53 PM 43.0 °F 38.8 °F 36.0 °F 76% 30.00 in 10.0 mi SE 6.9 mph - N/A   Overcast